TimeCST,TemperatureF,Dew PointF,Humidity,Sea Level PressureIn,VisibilityMPH,Wind Direction,Wind SpeedMPH,Gust SpeedMPH,PrecipitationIn,Events,Conditions,WindDirDegrees,DateUTC
1:52 AM,19.9,16.0,85,30.35,10.0,WNW,10.4,-,N/A,,Clear,300,2013-01-03 07:52:00
2:52 AM,19.0,14.0,81,30.35,10.0,NW,8.1,-,N/A,,Clear,310,2013-01-03 08:52:00
3:52 AM,18.0,14.0,84,30.35,10.0,WNW,8.1,-,N/A,,Clear,300,2013-01-03 09:52:00
4:52 AM,18.0,12.9,81,30.38,10.0,WNW,6.9,-,N/A,,Clear,300,2013-01-03 10:52:00
5:52 AM,19.0,14.0,81,30.42,10.0,WNW,9.2,-,N/A,,Mostly Cloudy,300,2013-01-03 11:52:00
6:52 AM,18.0,14.0,84,30.43,10.0,NW,8.1,-,N/A,,Mostly Cloudy,310,2013-01-03 12:52:00
7:52 AM,19.0,15.1,85,30.44,10.0,NW,6.9,-,N/A,,Overcast,310,2013-01-03 13:52:00
8:52 AM,21.9,16.0,78,30.46,10.0,NW,9.2,-,N/A,,Mostly Cloudy,310,2013-01-03 14:52:00
9:52 AM,25.0,19.0,78,30.49,10.0,NW,9.2,-,N/A,,Overcast,310,2013-01-03 15:52:00
10:52 AM,28.0,21.0,75,30.49,10.0,WNW,4.6,-,N/A,,Overcast,300,2013-01-03 16:52:00
11:52 AM,30.9,23.0,72,30.48,10.0,WNW,6.9,-,N/A,,Overcast,300,2013-01-03 17:52:00
12:52 PM,33.1,21.9,64,30.44,10.0,NW,8.1,-,N/A,,Overcast,310,2013-01-03 18:52:00
1:41 PM,33.8,21.2,60,30.39,10.0,NW,6.9,-,N/A,,Overcast,320,2013-01-03 19:41:00
1:52 PM,34.0,21.0,59,30.42,10.0,Variable,6.9,-,N/A,,Overcast,0,2013-01-03 19:52:00
2:25 PM,35.6,19.4,52,30.39,10.0,NW,6.9,-,N/A,,Overcast,320,2013-01-03 20:25:00
2:52 PM,35.1,21.0,57,30.42,10.0,NW,5.8,-,N/A,,Mostly Cloudy,320,2013-01-03 20:52:00
3:52 PM,35.1,19.9,54,30.43,10.0,West,10.4,-,N/A,,Scattered Clouds,280,2013-01-03 21:52:00
4:52 PM,32.0,19.9,61,30.44,10.0,WNW,6.9,-,N/A,,Clear,300,2013-01-03 22:52:00
5:52 PM,27.0,19.0,72,30.45,10.0,WNW,3.5,-,N/A,,Clear,300,2013-01-03 23:52:00
6:52 PM,23.0,17.1,78,30.46,10.0,Calm,Calm,-,N/A,,Clear,0,2013-01-04 00:52:00
7:52 PM,18.0,15.1,88,30.46,10.0,Calm,Calm,-,N/A,,Clear,0,2013-01-04 01:52:00
8:52 PM,17.1,14.0,88,30.45,10.0,Calm,Calm,-,N/A,,Clear,0,2013-01-04 02:52:00
9:52 PM,16.0,12.9,88,30.44,7.0,Calm,Calm,-,N/A,,Clear,0,2013-01-04 03:52:00
10:52 PM,16.0,12.0,84,30.45,3.0,Calm,Calm,-,N/A,,Clear,0,2013-01-04 04:52:00
10:54 PM,15.8,12.2,86,30.40,1.8,Calm,Calm,-,N/A,,Clear,0,2013-01-04 04:54:00
11:02 PM,14.0,10.4,86,30.40,0.5,Calm,Calm,-,N/A,Fog,Light Freezing Fog,0,2013-01-04 05:02:00
11:15 PM,12.2,8.6,85,30.40,2.0,Calm,Calm,-,N/A,,Clear,0,2013-01-04 05:15:00
11:22 PM,12.2,8.6,85,30.40,4.0,Calm,Calm,-,N/A,,Clear,0,2013-01-04 05:22:00
11:52 PM,12.9,9.0,84,30.44,6.0,Calm,Calm,-,N/A,,Clear,0,2013-01-04 05:52:00